Station Historical Data
Daily Summary for March 31, 2017 Units:  English    Metric   Both
« Previous Day
Next Day »
Daily Weekly Monthly Yearly Custom
  High: Low: Average:
Temperature: 47.8 °F 37.6 °F 42.5 °F
Dew Point: 45.3 °F 34.5 °F 40.2 °F
Humidity: 93% 88% 92%
Wind Speed: 9.0mph 0.0mph 3.1mph
Wind Gust: 18.0mph - -
Wind- - ENE
Pressure: 29.91 in 29.66 in -
Precipitation: 0.83 in    
Historical Graphs
 
 
Tabular Data for March 31, 2017
Time Temperature Dew Point Pressure Wind Wind Speed Wind Gust Humidity Rainfall Rate (Hourly)
00:00 37.7 °F 34.5 °F 29.85 in East 7.0 mph 18.0 mph 88% 0.00 in
00:05 37.8 °F 34.6 °F 29.86 in East 7.0 mph 16.0 mph 88% 0.00 in
00:10 37.8 °F 34.6 °F 29.87 in East 6.0 mph 16.0 mph 88% 0.00 in
00:15 37.9 °F 34.7 °F 29.87 in ENE 6.0 mph 16.0 mph 88% 0.00 in
00:20 38.0 °F 34.8 °F 29.86 in East 9.0 mph 12.0 mph 88% 0.00 in
00:25 38.0 °F 34.8 °F 29.86 in ESE 5.0 mph 10.0 mph 88% 0.00 in
00:30 38.0 °F 34.8 °F 29.86 in ENE 2.0 mph 14.0 mph 88% 0.00 in
00:35 38.1 °F 34.9 °F 29.88 in ENE 2.0 mph 11.0 mph 88% 0.01 in
00:40 38.1 °F 34.9 °F 29.89 in NE 3.0 mph 8.0 mph 88% 0.01 in
00:45 38.2 °F 35.0 °F 29.91 in NE 2.0 mph 9.0 mph 88% 0.01 in
00:50 38.2 °F 35.0 °F 29.91 in NE 3.0 mph 3.0 mph 88% 0.02 in
00:55 38.2 °F 35.0 °F 29.90 in NE 3.0 mph 5.0 mph 88% 0.03 in
01:00 38.2 °F 35.0 °F 29.89 in NE 4.0 mph 8.0 mph 88% 0.03 in
01:05 38.1 °F 35.1 °F 29.90 in NE 4.0 mph 9.0 mph 89% 0.05 in
01:10 38.0 °F 35.0 °F 29.89 in NNE 3.0 mph 9.0 mph 89% 0.06 in
01:15 38.0 °F 35.0 °F 29.89 in NNE 3.0 mph 7.0 mph 89% 0.07 in
01:20 37.9 °F 34.9 °F 29.89 in NNE 4.0 mph 7.0 mph 89% 0.07 in
01:25 37.9 °F 34.9 °F 29.89 in NNE 3.0 mph 7.0 mph 89% 0.07 in
01:30 37.8 °F 34.8 °F 29.90 in NNE 3.0 mph 7.0 mph 89% 0.07 in
01:35 37.8 °F 34.8 °F 29.89 in NE 7.0 mph 8.0 mph 89% 0.07 in
01:40 37.7 °F 35.0 °F 29.87 in NE 6.0 mph 10.0 mph 90% 0.07 in
01:45 37.7 °F 35.0 °F 29.87 in NE 5.0 mph 12.0 mph 90% 0.07 in
01:50 37.6 °F 34.9 °F 29.84 in NE 5.0 mph 10.0 mph 90% 0.06 in
01:55 37.6 °F 34.9 °F 29.84 in ESE 8.0 mph 14.0 mph 90% 0.05 in
02:00 37.7 °F 35.0 °F 29.84 in East 8.0 mph 11.0 mph 90% 0.05 in
02:05 37.7 °F 35.0 °F 29.83 in ENE 6.0 mph 11.0 mph 90% 0.04 in
02:10 37.7 °F 35.0 °F 29.83 in East 5.0 mph 11.0 mph 90% 0.03 in
02:15 37.7 °F 35.0 °F 29.81 in East 5.0 mph 11.0 mph 90% 0.02 in
02:20 37.8 °F 35.1 °F 29.81 in ENE 5.0 mph 11.0 mph 90% 0.02 in
02:25 37.9 °F 35.2 °F 29.81 in East 5.0 mph 11.0 mph 90% 0.02 in
02:30 38.0 °F 35.3 °F 29.82 in East 6.0 mph 11.0 mph 90% 0.01 in
02:35 38.0 °F 35.3 °F 29.82 in ENE 5.0 mph 11.0 mph 90% 0.01 in
02:40 38.1 °F 35.4 °F 29.82 in ENE 4.0 mph 11.0 mph 90% 0.01 in
02:45 38.2 °F 35.2 °F 29.83 in ENE 5.0 mph 6.0 mph 89% 0.01 in
02:50 38.3 °F 35.3 °F 29.83 in ENE 1.0 mph 9.0 mph 89% 0.01 in
02:55 38.4 °F 35.4 °F 29.82 in ENE 1.0 mph 7.0 mph 89% 0.01 in
03:00 38.5 °F 35.5 °F 29.82 in East 2.0 mph 9.0 mph 89% 0.01 in
03:05 38.5 °F 35.5 °F 29.82 in NE 6.0 mph 7.0 mph 89% 0.00 in
03:10 38.6 °F 35.6 °F 29.81 in ENE 4.0 mph 10.0 mph 89% 0.00 in
03:15 38.6 °F 35.6 °F 29.81 in ENE 4.0 mph 10.0 mph 89% 0.00 in
03:20 38.6 °F 35.4 °F 29.81 in ENE 4.0 mph 10.0 mph 88% 0.00 in
03:25 38.7 °F 35.7 °F 29.80 in ENE 4.0 mph 9.0 mph 89% 0.00 in
03:30 38.8 °F 35.6 °F 29.80 in ENE 3.0 mph 9.0 mph 88% 0.00 in
03:35 38.9 °F 35.6 °F 29.80 in East 3.0 mph 9.0 mph 88% 0.00 in
03:40 38.9 °F 35.6 °F 29.80 in NNE 2.0 mph 9.0 mph 88% 0.00 in
03:45 39.0 °F 35.7 °F 29.80 in ENE 3.0 mph 8.0 mph 88% 0.00 in
03:50 39.0 °F 35.7 °F 29.80 in NE 5.0 mph 9.0 mph 88% 0.00 in
03:55 39.0 °F 35.7 °F 29.80 in NE 4.0 mph 7.0 mph 88% 0.01 in
04:00 39.1 °F 35.8 °F 29.81 in ENE 2.0 mph 7.0 mph 88% 0.02 in
04:05 39.0 °F 35.7 °F 29.81 in NE 1.0 mph 5.0 mph 88% 0.02 in
04:10 38.9 °F 35.9 °F 29.80 in NE 2.0 mph 8.0 mph 89% 0.04 in
04:15 38.9 °F 35.9 °F 29.79 in ENE 3.0 mph 8.0 mph 89% 0.05 in
04:20 38.9 °F 35.9 °F 29.79 in ENE 3.0 mph 8.0 mph 89% 0.06 in
04:25 38.9 °F 35.9 °F 29.79 in ENE 3.0 mph 8.0 mph 89% 0.08 in
04:30 38.9 °F 36.2 °F 29.79 in ENE 3.0 mph 6.0 mph 90% 0.13 in
04:35 38.8 °F 36.1 °F 29.78 in East 2.0 mph 8.0 mph 90% 0.16 in
04:40 38.8 °F 36.1 °F 29.78 in East 2.0 mph 7.0 mph 90% 0.17 in
04:45 38.8 °F 36.1 °F 29.77 in East 3.0 mph 7.0 mph 90% 0.19 in
04:50 38.8 °F 36.1 °F 29.77 in ENE 4.0 mph 9.0 mph 90% 0.20 in
04:55 38.8 °F 36.1 °F 29.77 in East 4.0 mph 9.0 mph 90% 0.21 in
05:00 38.8 °F 36.4 °F 29.76 in ENE 4.0 mph 9.0 mph 91% 0.21 in
05:05 38.8 °F 36.4 °F 29.76 in ENE 4.0 mph 10.0 mph 91% 0.23 in
05:10 38.9 °F 36.5 °F 29.75 in ENE 4.0 mph 10.0 mph 91% 0.22 in
05:15 39.0 °F 36.6 °F 29.75 in NE 4.0 mph 7.0 mph 91% 0.21 in
05:20 39.1 °F 36.7 °F 29.75 in East 7.0 mph 8.0 mph 91% 0.20 in
05:25 39.2 °F 36.8 °F 29.76 in NE 3.0 mph 7.0 mph 91% 0.18 in
05:30 39.4 °F 37.0 °F 29.76 in NE 2.0 mph 5.0 mph 91% 0.13 in
05:35 39.5 °F 37.4 °F 29.76 in NE 2.0 mph 7.0 mph 92% 0.10 in
05:40 39.5 °F 37.4 °F 29.75 in NE 3.0 mph 6.0 mph 92% 0.10 in
05:45 39.6 °F 37.5 °F 29.75 in NE 5.0 mph 8.0 mph 92% 0.08 in
05:50 39.6 °F 37.5 °F 29.75 in NE 4.0 mph 10.0 mph 92% 0.08 in
05:55 39.7 °F 37.6 °F 29.75 in NE 5.0 mph 10.0 mph 92% 0.06 in
06:00 39.7 °F 37.6 °F 29.75 in NE 5.0 mph 9.0 mph 92% 0.06 in
06:05 39.7 °F 37.6 °F 29.75 in NE 5.0 mph 9.0 mph 92% 0.06 in
06:10 39.6 °F 37.5 °F 29.75 in NE 5.0 mph 10.0 mph 92% 0.05 in
06:15 39.7 °F 37.6 °F 29.75 in NE 5.0 mph 10.0 mph 92% 0.06 in
06:20 39.7 °F 37.6 °F 29.75 in NE 4.0 mph 9.0 mph 92% 0.06 in
06:25 39.7 °F 37.6 °F 29.74 in NNE 2.0 mph 9.0 mph 92% 0.06 in
06:30 39.7 °F 37.6 °F 29.74 in NE 7.0 mph 8.0 mph 92% 0.06 in
06:35 39.8 °F 37.7 °F 29.74 in ENE 2.0 mph 9.0 mph 92% 0.06 in
06:40 39.8 °F 37.7 °F 29.75 in NE 6.0 mph 10.0 mph 92% 0.05 in
06:45 39.8 °F 37.7 °F 29.75 in NE 8.0 mph 8.0 mph 92% 0.06 in
06:50 39.9 °F 37.8 °F 29.75 in NE 1.0 mph 9.0 mph 92% 0.06 in
06:55 39.9 °F 37.8 °F 29.75 in NE 3.0 mph 9.0 mph 92% 0.06 in
07:00 39.9 °F 37.8 °F 29.75 in NE 2.0 mph 5.0 mph 92% 0.05 in
07:05 39.9 °F 37.8 °F 29.75 in NE 3.0 mph 6.0 mph 92% 0.06 in
07:10 40.0 °F 37.9 °F 29.75 in NE 2.0 mph 6.0 mph 92% 0.07 in
07:15 39.9 °F 37.8 °F 29.75 in NE 2.0 mph 5.0 mph 92% 0.07 in
07:20 40.0 °F 37.9 °F 29.75 in NE 2.0 mph 4.0 mph 92% 0.07 in
07:25 40.1 °F 38.0 °F 29.75 in NE 3.0 mph 7.0 mph 92% 0.07 in
07:30 40.0 °F 37.9 °F 29.74 in NE 2.0 mph 6.0 mph 92% 0.07 in
07:35 40.0 °F 38.1 °F 29.75 in NE 1.0 mph 5.0 mph 93% 0.07 in
07:40 40.0 °F 37.9 °F 29.74 in NE 1.0 mph 5.0 mph 92% 0.07 in
07:45 39.9 °F 38.0 °F 29.74 in North 2.0 mph 7.0 mph 93% 0.06 in
07:50 40.0 °F 37.9 °F 29.74 in NE 2.0 mph 5.0 mph 92% 0.05 in
07:55 40.0 °F 37.9 °F 29.74 in NNE 2.0 mph 7.0 mph 92% 0.05 in
08:00 40.0 °F 38.1 °F 29.74 in NNE 3.0 mph 7.0 mph 93% 0.05 in
08:05 40.0 °F 38.1 °F 29.74 in NNE 2.0 mph 4.0 mph 93% 0.02 in
08:10 40.0 °F 38.1 °F 29.74 in NE 3.0 mph 7.0 mph 93% 0.01 in
08:15 40.0 °F 38.1 °F 29.74 in NNE 3.0 mph 7.0 mph 93% 0.00 in
08:20 40.1 °F 38.2 °F 29.74 in NNE 3.0 mph 7.0 mph 93% 0.00 in
08:25 40.1 °F 38.2 °F 29.74 in NE 3.0 mph 8.0 mph 93% 0.00 in
08:30 40.3 °F 38.4 °F 29.74 in NE 5.0 mph 5.0 mph 93% 0.00 in
08:35 40.2 °F 38.3 °F 29.75 in NNE 2.0 mph 5.0 mph 93% 0.00 in
08:40 40.1 °F 38.2 °F 29.75 in NE 2.0 mph 6.0 mph 93% 0.00 in
08:45 40.1 °F 38.2 °F 29.75 in NE 6.0 mph 6.0 mph 93% 0.00 in
08:50 40.2 °F 38.3 °F 29.75 in NNE 3.0 mph 6.0 mph 93% 0.00 in
08:55 40.2 °F 38.3 °F 29.74 in NNE 1.0 mph 4.0 mph 93% 0.00 in
09:00 40.3 °F 38.4 °F 29.74 in NE 4.0 mph 6.0 mph 93% 0.00 in
09:05 40.3 °F 38.4 °F 29.74 in NE 3.0 mph 9.0 mph 93% 0.00 in
09:10 40.3 °F 38.4 °F 29.74 in NE 3.0 mph 9.0 mph 93% 0.01 in
09:15 40.3 °F 38.4 °F 29.74 in NE 3.0 mph 6.0 mph 93% 0.01 in
09:20 40.5 °F 38.6 °F 29.74 in NE 3.0 mph 7.0 mph 93% 0.01 in
09:25 40.6 °F 38.7 °F 29.74 in NE 3.0 mph 7.0 mph 93% 0.01 in
09:30 40.8 °F 38.9 °F 29.74 in NE 2.0 mph 5.0 mph 93% 0.01 in
09:35 40.9 °F 39.0 °F 29.74 in NNE 1.0 mph 5.0 mph 93% 0.01 in
09:40 41.1 °F 39.2 °F 29.74 in NNE 2.0 mph 5.0 mph 93% 0.01 in
09:45 41.3 °F 39.4 °F 29.74 in North 3.0 mph 5.0 mph 93% 0.01 in
09:50 41.5 °F 39.6 °F 29.74 in NNE 3.0 mph 6.0 mph 93% 0.01 in
09:55 41.7 °F 39.8 °F 29.73 in NE 4.0 mph 8.0 mph 93% 0.01 in
10:00 41.8 °F 39.9 °F 29.73 in NE 6.0 mph 7.0 mph 93% 0.01 in
10:05 42.2 °F 40.3 °F 29.73 in NE 1.0 mph 7.0 mph 93% 0.01 in
10:10 42.4 °F 40.5 °F 29.73 in NE 3.0 mph 7.0 mph 93% 0.00 in
10:15 42.7 °F 40.8 °F 29.73 in NE 3.0 mph 7.0 mph 93% 0.00 in
10:20 42.7 °F 40.8 °F 29.73 in NE 3.0 mph 7.0 mph 93% 0.00 in
10:25 43.0 °F 41.1 °F 29.73 in NE 3.0 mph 7.0 mph 93% 0.00 in
10:30 43.0 °F 41.1 °F 29.73 in NNE 5.0 mph 7.0 mph 93% 0.00 in
10:35 43.1 °F 41.2 °F 29.73 in NE 1.0 mph 6.0 mph 93% 0.00 in
10:40 43.0 °F 40.8 °F 29.73 in NE 3.0 mph 7.0 mph 92% 0.00 in
10:45 43.2 °F 41.3 °F 29.74 in NE 4.0 mph 8.0 mph 93% 0.00 in
10:50 43.5 °F 41.3 °F 29.74 in NE 4.0 mph 6.0 mph 92% 0.00 in
10:55 43.4 °F 41.2 °F 29.73 in NE 2.0 mph 6.0 mph 92% 0.00 in
11:00 43.6 °F 41.4 °F 29.73 in NE 3.0 mph 5.0 mph 92% 0.00 in
11:05 43.6 °F 41.4 °F 29.73 in NE 3.0 mph 7.0 mph 92% 0.00 in
11:10 43.6 °F 41.4 °F 29.73 in NE 4.0 mph 6.0 mph 92% 0.00 in
11:15 43.8 °F 41.6 °F 29.73 in NE 3.0 mph 6.0 mph 92% 0.00 in
11:20 43.9 °F 41.7 °F 29.72 in NE 3.0 mph 8.0 mph 92% 0.00 in
11:25 43.9 °F 41.7 °F 29.72 in NE 2.0 mph 6.0 mph 92% 0.00 in
11:30 44.1 °F 41.9 °F 29.72 in NE 3.0 mph 7.0 mph 92% 0.00 in
11:35 44.1 °F 41.9 °F 29.72 in NE 4.0 mph 8.0 mph 92% 0.00 in
11:40 44.3 °F 42.1 °F 29.72 in NE 4.0 mph 8.0 mph 92% 0.00 in
11:45 44.3 °F 42.1 °F 29.72 in NE 2.0 mph 8.0 mph 92% 0.00 in
11:50 44.6 °F 42.4 °F 29.72 in NE 1.0 mph 8.0 mph 92% 0.01 in
11:55 44.7 °F 42.5 °F 29.72 in ENE 4.0 mph 9.0 mph 92% 0.01 in
12:00 44.7 °F 42.5 °F 29.72 in ENE 7.0 mph 9.0 mph 92% 0.01 in
12:05 44.9 °F 42.7 °F 29.72 in NE 8.0 mph 9.0 mph 92% 0.01 in
12:10 45.2 °F 43.3 °F 29.71 in NNE 2.0 mph 8.0 mph 93% 0.01 in
12:15 45.0 °F 42.8 °F 29.71 in NE 3.0 mph 9.0 mph 92% 0.01 in
12:20 45.0 °F 42.8 °F 29.71 in NE 5.0 mph 10.0 mph 92% 0.01 in
12:25 45.4 °F 43.2 °F 29.71 in NE 4.0 mph 10.0 mph 92% 0.01 in
12:30 45.3 °F 43.1 °F 29.71 in NE 4.0 mph 9.0 mph 92% 0.01 in
12:35 45.2 °F 43.0 °F 29.71 in NE 5.0 mph 9.0 mph 92% 0.01 in
12:40 45.4 °F 43.2 °F 29.71 in NE 5.0 mph 9.0 mph 92% 0.01 in
12:45 45.4 °F 43.2 °F 29.71 in NE 4.0 mph 9.0 mph 92% 0.01 in
12:50 45.4 °F 43.2 °F 29.70 in NNE 4.0 mph 7.0 mph 92% 0.01 in
12:55 45.4 °F 43.2 °F 29.70 in ENE 5.0 mph 9.0 mph 92% 0.01 in
13:00 45.3 °F 43.1 °F 29.70 in NE 5.0 mph 11.0 mph 92% 0.01 in
13:05 45.4 °F 43.2 °F 29.70 in NE 5.0 mph 11.0 mph 92% 0.01 in
13:10 45.4 °F 43.2 °F 29.70 in ENE 3.0 mph 10.0 mph 92% 0.01 in
13:15 45.6 °F 43.4 °F 29.69 in NE 5.0 mph 7.0 mph 92% 0.01 in
13:20 46.0 °F 43.8 °F 29.69 in ENE 3.0 mph 9.0 mph 92% 0.01 in
13:25 45.8 °F 43.6 °F 29.69 in NE 4.0 mph 9.0 mph 92% 0.01 in
13:30 45.9 °F 43.7 °F 29.69 in NE 5.0 mph 9.0 mph 92% 0.01 in
13:35 46.2 °F 44.0 °F 29.69 in NE 5.0 mph 9.0 mph 92% 0.01 in
13:40 46.2 °F 44.0 °F 29.69 in NE 4.0 mph 8.0 mph 92% 0.02 in
13:45 46.3 °F 44.1 °F 29.69 in NE 4.0 mph 9.0 mph 92% 0.02 in
13:50 46.5 °F 44.3 °F 29.69 in NE 4.0 mph 9.0 mph 92% 0.01 in
13:55 46.2 °F 44.0 °F 29.69 in NE 3.0 mph 7.0 mph 92% 0.01 in
14:05 46.1 °F 43.9 °F 29.69 in NE 3.0 mph 5.0 mph 92% 0.03 in
14:10 46.1 °F 43.9 °F 29.69 in Calm   3.0 mph 92% 0.04 in
14:15 46.3 °F 44.4 °F 29.69 in NE 1.0 mph 3.0 mph 93% 0.05 in
14:20 46.3 °F 44.1 °F 29.69 in SE 1.0 mph 6.0 mph 92% 0.06 in
14:25 46.2 °F 44.0 °F 29.68 in SE 3.0 mph 5.0 mph 92% 0.06 in
14:30 46.4 °F 44.2 °F 29.68 in SE 2.0 mph 6.0 mph 92% 0.07 in
14:35 46.5 °F 44.0 °F 29.68 in SE 3.0 mph 8.0 mph 91% 0.08 in
14:40 46.7 °F 44.2 °F 29.68 in SE 3.0 mph 8.0 mph 91% 0.07 in
14:45 46.8 °F 44.3 °F 29.68 in SE 4.0 mph 8.0 mph 91% 0.07 in
14:50 46.9 °F 44.4 °F 29.68 in SE 3.0 mph 8.0 mph 91% 0.08 in
14:55 47.1 °F 44.6 °F 29.68 in Calm   6.0 mph 91% 0.08 in
15:00 47.5 °F 45.3 °F 29.67 in Calm   3.0 mph 92% 0.07 in
15:05 47.4 °F 44.9 °F 29.67 in ESE 1.0 mph 4.0 mph 91% 0.06 in
15:10 47.6 °F 45.1 °F 29.67 in Calm   3.0 mph 91% 0.06 in
15:15 47.6 °F 45.1 °F 29.67 in ENE 1.0 mph 5.0 mph 91% 0.05 in
15:20 47.6 °F 44.8 °F 29.67 in ENE 3.0 mph 4.0 mph 90% 0.04 in
15:25 47.5 °F 44.7 °F 29.67 in ENE 2.0 mph 7.0 mph 90% 0.04 in
15:30 47.6 °F 44.8 °F 29.67 in NE 2.0 mph 5.0 mph 90% 0.04 in
15:35 47.8 °F 45.0 °F 29.67 in East 2.0 mph 5.0 mph 90% 0.03 in
15:40 47.8 °F 45.0 °F 29.67 in ENE 2.0 mph 5.0 mph 90% 0.03 in
15:45 47.8 °F 45.0 °F 29.67 in ENE 2.0 mph 5.0 mph 90% 0.03 in
15:50 47.5 °F 44.7 °F 29.67 in East 2.0 mph 5.0 mph 90% 0.02 in
15:55 47.5 °F 44.4 °F 29.67 in East 2.0 mph 5.0 mph 89% 0.02 in
16:00 47.5 °F 44.7 °F 29.67 in ENE 3.0 mph 3.0 mph 90% 0.02 in
16:05 47.3 °F 44.5 °F 29.67 in NE 3.0 mph 4.0 mph 90% 0.02 in
16:10 47.1 °F 44.3 °F 29.67 in NE 2.0 mph 5.0 mph 90% 0.01 in
16:15 47.0 °F 44.2 °F 29.67 in NE 2.0 mph 8.0 mph 90% 0.01 in
16:20 47.0 °F 44.5 °F 29.67 in ENE 3.0 mph 5.0 mph 91% 0.01 in
16:25 47.0 °F 44.5 °F 29.67 in East 2.0 mph 5.0 mph 91% 0.01 in
16:30 47.0 °F 44.5 °F 29.67 in ENE 1.0 mph 4.0 mph 91% 0.00 in
16:35 47.0 °F 44.5 °F 29.66 in East 2.0 mph 6.0 mph 91% 0.00 in
16:40 46.9 °F 44.4 °F 29.66 in East 2.0 mph 6.0 mph 91% 0.01 in
16:45 46.8 °F 44.3 °F 29.66 in East 2.0 mph 7.0 mph 91% 0.01 in
16:50 46.9 °F 44.7 °F 29.66 in East 3.0 mph 7.0 mph 92% 0.01 in
16:55 47.1 °F 44.9 °F 29.66 in ENE 2.0 mph 6.0 mph 92% 0.01 in
17:00 47.1 °F 44.9 °F 29.66 in East 2.0 mph 6.0 mph 92% 0.01 in
17:05 47.0 °F 44.8 °F 29.67 in SE 2.0 mph 6.0 mph 92% 0.01 in
17:10 46.7 °F 44.5 °F 29.66 in ESE 4.0 mph 6.0 mph 92% 0.01 in
17:15 46.7 °F 44.5 °F 29.66 in ESE 3.0 mph 8.0 mph 92% 0.01 in
17:20 46.6 °F 44.4 °F 29.66 in East 3.0 mph 6.0 mph 92% 0.01 in
17:25 46.5 °F 44.3 °F 29.66 in ESE 3.0 mph 6.0 mph 92% 0.01 in
17:30 46.5 °F 44.3 °F 29.66 in ESE 2.0 mph 5.0 mph 92% 0.01 in
17:35 46.5 °F 44.3 °F 29.66 in NE 3.0 mph 5.0 mph 92% 0.01 in
17:40 46.4 °F 44.2 °F 29.66 in ENE 3.0 mph 8.0 mph 92% 0.00 in
17:45 46.3 °F 44.1 °F 29.67 in ENE 2.0 mph 8.0 mph 92% 0.01 in
17:50 46.3 °F 44.1 °F 29.67 in ENE 2.0 mph 5.0 mph 92% 0.01 in
17:55 46.2 °F 44.0 °F 29.67 in ENE 3.0 mph 7.0 mph 92% 0.01 in
18:00 46.3 °F 44.1 °F 29.67 in ENE 2.0 mph 7.0 mph 92% 0.01 in
18:05 46.1 °F 43.9 °F 29.67 in East 2.0 mph 7.0 mph 92% 0.01 in
18:10 46.1 °F 43.9 °F 29.67 in East 2.0 mph 7.0 mph 92% 0.02 in
18:15 46.1 °F 43.9 °F 29.67 in ENE 3.0 mph 6.0 mph 92% 0.02 in
18:20 46.0 °F 43.8 °F 29.67 in East 2.0 mph 5.0 mph 92% 0.03 in
18:25 45.9 °F 43.7 °F 29.68 in ENE 3.0 mph 5.0 mph 92% 0.03 in
18:30 45.8 °F 43.6 °F 29.67 in Calm   5.0 mph 92% 0.04 in
18:35 45.9 °F 43.7 °F 29.68 in East 3.0 mph 3.0 mph 92% 0.04 in
18:40 45.9 °F 43.7 °F 29.68 in Calm   5.0 mph 92% 0.05 in
18:45 45.9 °F 43.7 °F 29.68 in ENE 1.0 mph 5.0 mph 92% 0.05 in
18:50 45.8 °F 43.6 °F 29.68 in East 1.0 mph 5.0 mph 92% 0.05 in
18:55 45.7 °F 43.5 °F 29.68 in East 1.0 mph 5.0 mph 92% 0.05 in
19:00 45.6 °F 43.4 °F 29.68 in East 1.0 mph 5.0 mph 92% 0.05 in
19:05 45.5 °F 43.3 °F 29.68 in East 2.0 mph 6.0 mph 92% 0.06 in
19:10 45.5 °F 43.3 °F 29.69 in East 2.0 mph 6.0 mph 92% 0.05 in
19:15 45.4 °F 43.2 °F 29.68 in Calm   2.0 mph 92% 0.05 in
19:20 45.4 °F 43.2 °F 29.69 in Calm   5.0 mph 92% 0.04 in
19:25 45.3 °F 43.1 °F 29.69 in ENE 1.0 mph 5.0 mph 92% 0.05 in
19:30 45.2 °F 43.3 °F 29.69 in ENE 1.0 mph 3.0 mph 93% 0.04 in
19:35 45.2 °F 43.3 °F 29.69 in Calm   4.0 mph 93% 0.04 in
19:40 45.2 °F 43.3 °F 29.69 in ENE 1.0 mph 3.0 mph 93% 0.04 in
19:45 45.1 °F 43.2 °F 29.69 in Calm   1.0 mph 93% 0.03 in
19:50 45.1 °F 43.2 °F 29.69 in Calm     93% 0.04 in
19:55 45.1 °F 43.2 °F 29.69 in ENE 1.0 mph 3.0 mph 93% 0.04 in
20:00 45.0 °F 43.1 °F 29.69 in ENE 1.0 mph 3.0 mph 93% 0.04 in
20:05 45.1 °F 43.2 °F 29.70 in ENE 1.0 mph 3.0 mph 93% 0.04 in
20:10 45.1 °F 43.2 °F 29.70 in ENE 2.0 mph 3.0 mph 93% 0.04 in
20:15 45.1 °F 43.2 °F 29.70 in ENE 2.0 mph 4.0 mph 93% 0.04 in
20:20 45.0 °F 43.1 °F 29.70 in NE 1.0 mph 5.0 mph 93% 0.05 in
20:25 44.9 °F 43.0 °F 29.70 in NE 2.0 mph 3.0 mph 93% 0.04 in
20:30 44.7 °F 42.8 °F 29.70 in NE 2.0 mph 4.0 mph 93% 0.04 in
20:35 44.7 °F 42.8 °F 29.70 in ENE 1.0 mph 5.0 mph 93% 0.05 in
20:40 44.6 °F 42.7 °F 29.70 in NE 3.0 mph 4.0 mph 93% 0.04 in
20:45 44.5 °F 42.6 °F 29.71 in NNE 1.0 mph 4.0 mph 93% 0.05 in
20:50 44.4 °F 42.5 °F 29.71 in NNE 3.0 mph 6.0 mph 93% 0.04 in
20:55 44.4 °F 42.5 °F 29.71 in NE 2.0 mph 8.0 mph 93% 0.04 in
21:00 44.3 °F 42.4 °F 29.71 in NE 3.0 mph 8.0 mph 93% 0.04 in
21:05 44.2 °F 42.3 °F 29.71 in NE 2.0 mph 4.0 mph 93% 0.04 in
21:10 44.2 °F 42.3 °F 29.71 in NE 2.0 mph 5.0 mph 93% 0.04 in
21:15 44.0 °F 42.1 °F 29.71 in NE 3.0 mph 5.0 mph 93% 0.05 in
21:20 43.8 °F 41.9 °F 29.71 in NNE 3.0 mph 5.0 mph 93% 0.04 in
21:25 43.6 °F 41.7 °F 29.71 in NNE 5.0 mph 7.0 mph 93% 0.04 in
21:30 43.4 °F 41.5 °F 29.71 in NE 4.0 mph 12.0 mph 93% 0.05 in
21:35 43.1 °F 41.2 °F 29.71 in NE 5.0 mph 12.0 mph 93% 0.04 in
21:40 43.0 °F 41.1 °F 29.71 in NE 4.0 mph 8.0 mph 93% 0.04 in
21:45 43.0 °F 41.1 °F 29.72 in ENE 7.0 mph 7.0 mph 93% 0.03 in
21:50 42.9 °F 41.0 °F 29.72 in NE 7.0 mph 7.0 mph 93% 0.03 in
21:55 42.9 °F 41.0 °F 29.72 in NE 7.0 mph 7.0 mph 93% 0.03 in
22:00 42.8 °F 40.9 °F 29.72 in NNE 1.0 mph 7.0 mph 93% 0.03 in
22:05 42.8 °F 40.9 °F 29.72 in NNE 3.0 mph 6.0 mph 93% 0.02 in
22:10 42.8 °F 40.9 °F 29.72 in NE 2.0 mph 6.0 mph 93% 0.03 in
22:15 42.8 °F 40.9 °F 29.72 in NNE 2.0 mph 5.0 mph 93% 0.02 in
22:20 42.7 °F 40.8 °F 29.72 in NNE 1.0 mph 5.0 mph 93% 0.02 in
22:25 42.7 °F 40.8 °F 29.72 in NNE 2.0 mph 7.0 mph 93% 0.02 in
22:30 42.6 °F 40.7 °F 29.72 in North 2.0 mph 5.0 mph 93% 0.01 in
22:35 42.5 °F 40.6 °F 29.72 in NE 3.0 mph 8.0 mph 93% 0.01 in
22:40 42.5 °F 40.6 °F 29.72 in NNE 3.0 mph 8.0 mph 93% 0.01 in
22:45 42.4 °F 40.5 °F 29.72 in NNE 3.0 mph 7.0 mph 93% 0.01 in
22:50 42.2 °F 40.3 °F 29.72 in NNE 3.0 mph 7.0 mph 93% 0.01 in
22:55 41.9 °F 40.0 °F 29.72 in NNE 3.0 mph 6.0 mph 93% 0.01 in
23:00 41.6 °F 39.7 °F 29.72 in NNE 3.0 mph 6.0 mph 93% 0.01 in
23:05 41.4 °F 39.5 °F 29.73 in NNE 3.0 mph 6.0 mph 93% 0.02 in
23:10 41.2 °F 39.3 °F 29.73 in NNE 3.0 mph 6.0 mph 93% 0.01 in
23:15 41.1 °F 39.2 °F 29.73 in NNE 2.0 mph 6.0 mph 93% 0.01 in
23:20 41.0 °F 39.1 °F 29.73 in NNE 3.0 mph 7.0 mph 93% 0.01 in
23:25 40.8 °F 38.9 °F 29.73 in North 3.0 mph 6.0 mph 93% 0.01 in
23:30 40.6 °F 38.7 °F 29.73 in NE 4.0 mph 7.0 mph 93% 0.02 in
23:35 40.3 °F 38.4 °F 29.73 in North 3.0 mph 7.0 mph 93% 0.02 in
23:40 40.1 °F 38.2 °F 29.73 in North 4.0 mph 7.0 mph 93% 0.02 in
23:45 39.9 °F 38.0 °F 29.74 in NNE 4.0 mph 7.0 mph 93% 0.02 in
23:50 39.8 °F 37.9 °F 29.74 in NNE 4.0 mph 8.0 mph 93% 0.02 in
23:55 39.7 °F 37.8 °F 29.74 in North 4.0 mph 8.0 mph 93% 0.02 in
Buffalo, New York, USA
Compliments of Weather Underground - 2.5 mb